Terminal Aerodrome Forecast
Issued by NWS Anchorage, AK

Home | Current Version | Previous Version | Text Only | Print | Product List | Glossary On
Versions: 1 2 3 4 5 6 7 8 9 10 11 12 13 14 15 16 17 18 19 20 21 22 23 24 25 26 27 28 29 30 31 32 33 34 35 36 37 38 39 40 41 42 43 44 45 46
000
FTAK31 PANC 211850 AAC
TAFANC
TAF AMD
PANC 211850Z 2119/2224 00000KT 4SM BR OVC004
     FM212000 29007KT P6SM FEW008 SCT060
     FM220900 VRB06KT 4SM BR SCT010 BKN050 BKN120
     FM221500 12008KT P6SM BKN060=

USA.gov is the U.S. government's official web portal to all federal, state and local government web resources and services.